Location: Newark
(41.9364°N, 2.8061°E)
Time: 09:42:49
(UTC+00:00)

Courier 1B Rocket - Visible Passes

Search period start: 19 February 2020 00:00
Search period end: 29 February 2020 00:00
Orbit: 920 x 1202 km, 28.2° (Epoch: 17 February)

Date Brightness Start Highest point End Pass type
(mag) Time Alt. Az. Time Alt. Az. Time Alt. Az.
19 Feb 6.4 04:20:56 24° SSW 04:21:29 25° S 04:27:09 10° SE visible
19 Feb 7.1 06:10:10 10° SW 06:14:05 15° SSW 06:18:08 10° SSE visible
20 Feb 7.0 03:23:43 19° SSE 03:23:43 19° SSE 03:26:14 10° SE visible
20 Feb 6.8 05:10:05 14° SW 05:13:15 19° SSW 05:18:02 10° SSE visible
21 Feb 6.6 04:12:53 21° S 04:12:53 21° S 04:17:34 10° SE visible
21 Feb 7.2 06:03:29 10° SW 06:04:56 11° SSW 06:06:23 10° SSW visible
22 Feb 7.3 03:15:43 14° SE 03:15:43 14° SE 03:16:52 10° SE visible
22 Feb 6.9 05:02:05 12° SW 05:04:08 14° SSW 05:07:36 10° S visible
23 Feb 6.9 04:04:57 16° S 04:04:57 16° S 04:07:38 10° SSE visible
